Weather History for MMDO - October, 2012

Change the Weather History Date:

Friday, October 26, 2012

  Actual Average Record
Temperature  
Mean Temperature 70 °F -  
Max Temperature 86 °F 74 °F 86 °F (2012)
Min Temperature 53 °F 39 °F 32 °F (2007)
Cooling Degree Days 4    
Growing Degree Days 20 (Base 50)    
Moisture  
Dew Point 45 °F    
Average Humidity 41    
Maximum Humidity 82    
Minimum Humidity 17    
Precipitation  
Precipitation 0.00 in - - ()
Sea Level Pressure  
Sea Level Pressure 29.91 in    
Wind  
Wind Speed 2 mph ()    
Max Wind Speed 8 mph    
Max Gust Speed -    
Visibility 12.6 miles    
Events      
Averages and records for this station are not official NWS values.
T = Trace of Precipitation, MM = Missing Value Source: Averaged Metar Reports

Daily Weather History Graph

Daily Weather History Graph

Search for Another Location

Airport or City:

Trip Planner

Search our weather history database for the weather conditions in past years. The results will help you decide how hot, cold, wet, or windy it might be!

Date:

Astronomy

Oct. 26, 2012 Rise Set
Actual Time 8:01 AM CDT 7:22 PM CDT
Civil Twilight 7:38 AM CDT 7:45 PM CDT
Nautical Twilight 7:11 AM CDT 8:12 PM CDT
Astronomical Twilight 6:44 AM CDT 8:38 PM CDT
Moon 5:26 PM CDT (10/26) 5:16 AM CDT (10/26)
Length of Visible Light 12h 07m
Length of Day
11h 20m
Waxing Gibbous, 91% of the Moon is Illuminated
Oct 26
Waxing Gibbous
Oct 29
Full
Nov 6
Last Quarter
Nov 13
New
Nov 20
First Quarter

Hourly Weather History & Observations

Time (CDT) Temp. Dew Point Humidity Pressure Visibility Wind Dir Wind Speed Gust Speed Precip Events Conditions
12:50 AM 64 °F 53 °F 58% 29.62 in 6 mi South 2.2 mph - -  
3:50 AM 58 °F 46 °F 56% 29.68 in 6 mi Calm Calm - -  
5:52 AM 50.0 °F 44.6 °F 82% 30.12 in 10.0 mi Calm Calm - N/A   Clear
6:47 AM 50.0 °F 42.8 °F 76% 29.78 in 10.0 mi NNW 4.6 mph - N/A   Clear
6:50 AM 56 °F 45 °F 58% 29.78 in 9 mi Calm Calm - -  
7:46 AM - - N/A% 30.14 in 12.0 mi Calm Calm - N/A   Clear
8:48 AM 53.6 °F 41.0 °F 62% 30.16 in 14.0 mi Calm Calm - N/A   Clear
9:45 AM 60 °F 47 °F 53% 29.88 in 19 mi Calm Calm - -  
9:46 AM 60.8 °F 46.4 °F 59% 29.80 in 14.0 mi Calm Calm - N/A   Clear
10:45 AM 69.8 °F 46.4 °F 43% 30.16 in 14.0 mi North 2.3 mph - N/A   Clear
11:52 AM 75.2 °F 46.4 °F 36% 30.18 in 14.0 mi Calm Calm - N/A   Clear
12:45 PM 76 °F 47 °F 24% 29.87 in 19 mi SSW 2.2 mph - -   Scattered Clouds
12:47 PM 80.6 °F 46.4 °F 30% 29.76 in 14.0 mi Calm Calm - N/A   Clear
1:45 PM 82.4 °F 44.6 °F 26% 30.13 in 14.0 mi Calm Calm - N/A   Clear
2:45 PM 86.0 °F 42.8 °F 22% 30.11 in 14.0 mi South 6.9 mph - N/A   Scattered Clouds
3:40 PM 84 °F 47 °F 17% 29.69 in 25 mi SSE 4.5 mph - -   Partly Cloudy
3:47 PM 84.2 °F 48.2 °F 29% 29.64 in 14.0 mi ENE 6.9 mph - N/A   Scattered Clouds
4:43 PM 86.0 °F 42.8 °F 22% 30.06 in 14.0 mi SE 8.1 mph - N/A   Partly Cloudy
5:47 PM 84.2 °F 44.6 °F 25% 30.05 in 14.0 mi SE 8.1 mph - N/A   Partly Cloudy
6:51 PM 80.6 °F 37.4 °F 21% 29.65 in 14.0 mi SSE 4.6 mph - N/A   Scattered Clouds
7:47 PM 75.2 °F 37.4 °F 25% 30.07 in 14.0 mi Calm Calm - N/A   Scattered Clouds
9:55 PM 73 °F 46 °F 27% 29.61 in 6 mi Calm Calm - -   Scattered Clouds